Location: Eschentzwiller
(47.7125°N, 7.3981°E)
Time: 04:28:15
(UTC+00:00)

H-2A R/B - Pass Details

Date: 27 October 2020
Orbit: 733 x 837 km, 98.2° (Epoch: 01 December)

Event Time Altitude Azimuth Distance (km) Brightness Sun altitude
Rises 17:19:33 0° 132° (SE) 3,358 4.9 -10.5°
Reaches altitude 10° 17:22:09 10° 122° (ESE) 2,438 4.1 -11.0°
Maximum altitude 17:26:46 30° 63° (ENE) 1,472 3.0 -11.7°
Drops below altitude 10° 17:31:26 10° 4° (N) 2,463 4.5 -12.5°
Sets 17:34:04 0° 355° (N) 3,398 5.4 -13.0°
